Location: ???????
(48.4040°N, 34.4629°E)
Time: 22:13:27
(UTC+00:00)

Daily predictions for brighter satellites

Satellite Brightness Start Highest point End
(mag) Time Altitude Azimuth Time Altitude Azimuth Time Altitude Azimuth
Cosmos 1782 Rocket 4.1 17:59:08 10° N 18:03:28 47° ENE 18:07:47 10° SSE
Cosmos 1140 Rocket 4.0 18:00:02 10° NNW 18:05:04 48° ENE 18:10:06 10° SE
STARLINK-1075 4.0 18:01:43 10° WNW 18:05:50 63° NNE 18:09:57 10° ESE
Cosmos 1634 Rocket 4.5 18:02:02 10° N 18:08:07 46° ENE 18:14:09 10° SSE
Cosmos 614 Rocket 4.0 18:03:18 10° NNW 18:08:24 81° ENE 18:13:30 10° SSE
STARLINK-1140 4.1 18:04:29 10° WNW 18:08:30 50° SW 18:12:30 10° SE
Cosmos 1371 Rocket 4.5 18:05:14 10° S 18:10:06 40° ESE 18:14:58 10° NE
DMSP B5D2-2 4.3 18:05:05 10° NNE 18:10:24 83° WNW 18:15:42 10° SSW
STARLINK-1093 3.9 18:06:42 10° WNW 18:10:50 66° NNE 18:14:57 10° ESE
Okean 2 Rocket 4.4 18:07:45 10° NNE 18:11:28 25° ENE 18:15:08 10° SE
Cosmos 1703 Rocket 3.6 18:07:16 10° S 18:11:31 59° E 18:15:47 10° NNE
TELKOM 3 4.1 18:09:42 10° W 18:11:32 26° SSW 18:13:30 10° SE
BREEZE-M DEB (TANK) 3.6 18:04:16 10° WSW 18:11:49 62° SSE 18:15:23 10° ENE
STARLINK-1156 4.2 18:09:30 10° WNW 18:13:29 46° SW 18:17:26 10° SE
Cosmos 2082 Rocket 3.6 18:09:53 10° NNW 18:14:46 27° NE 18:19:36 10° ESE
STARLINK-1074 3.9 18:11:41 10° WNW 18:15:50 69° NNE 18:19:57 10° ESE
STARLINK-1148 4.3 18:14:29 10° WNW 18:18:26 43° SW 18:22:21 10° SE
Cosmos 1743 2.8 18:14:38 10° NNW 18:18:28 77° W 18:22:16 10° S
Landsat 7 4.3 18:13:57 10° SE 18:18:30 47° ENE 18:23:04 10° N
STARLINK-1233 4.5 18:15:48 10° SSW 18:19:23 28° SE 18:22:57 10° ENE
Cosmos 1544 3.3 18:18:07 10° N 18:21:44 53° ENE 18:25:16 10° SSE
BREEZE-M DEB (TANK) 4.5 18:20:47 10° W 18:22:23 16° SW 18:23:57 10° S
Cosmos 1908 Rocket 4.0 18:18:04 10° NNW 18:22:29 66° W 18:26:53 10° S
STARLINK-1158 4.5 18:19:29 10° WNW 18:23:24 40° SW 18:27:13 10° SSE
SAR-Lupe-2 4.3 18:20:39 10° NNE 18:23:59 35° E 18:27:19 10° SSE
Cosmos 1833 Rocket 3.4 18:18:46 10° NNW 18:24:08 43° NE 18:29:28 10° SE
STARLINK-1204 4.4 18:20:41 10° SSW 18:24:20 31° SE 18:28:00 10° ENE
ERS-1 Rocket 3.8 18:20:39 10° SE 18:25:13 36° ENE 18:29:49 10° N
Tsikada Rocket 4.0 18:19:14 10° S 18:25:25 77° E 18:31:36 10° NNE
STARLINK-1088 3.7 18:21:38 10° WNW 18:25:47 76° NNE 18:29:56 10° ESE
STARLINK-1087 3.3 18:25:01 10° W 18:26:46 24° SW 18:28:08 13° SSE
ERBS 4.4 18:27:21 10° ESE 18:27:21 10° ESE 18:27:29 10° ESE
Cosmos 909 Rocket 4.5 18:19:20 10° NW 18:27:37 85° SW 18:34:13 10° SSE
STARLINK-1238 4.3 18:25:31 10° SSW 18:29:15 33° SE 18:32:59 10° ENE
Spot 2 Rocket 3.5 18:25:20 10° SSE 18:30:20 72° ENE 18:35:23 10° N
Meteor 2-9 Rocket 4.1 18:25:05 10° N 18:30:33 74° ENE 18:35:52 10° SSE
STARLINK-1115 3.7 18:26:36 10° WNW 18:30:46 80° NNE 18:34:55 10° ESE
CZ-2C R/B 3.3 18:25:22 10° N 18:30:53 63° WNW 18:36:25 10° SSW
Cosmos 1975 2.8 18:28:16 10° N 18:32:22 79° E 18:36:24 10° SSE
Cosmos 676 Rocket 4.3 18:27:20 10° NNW 18:32:30 55° ENE 18:37:15 12° SE
STARLINK-1201 4.2 18:30:26 10° SSW 18:34:13 36° SE 18:38:02 10° ENE
STARLINK-1076 3.6 18:31:35 10° WNW 18:35:45 85° NNE 18:39:42 11° ESE
Cosmos 2056 Rocket 3.5 18:33:41 10° S 18:38:42 59° ESE 18:43:44 10° NNE
STARLINK-1206 4.1 18:35:19 10° SSW 18:39:10 38° SE 18:43:02 10° ENE
STARLINK-1092 3.6 18:36:33 10° WNW 18:40:43 89° NNE 18:44:28 12° ESE
ATLAS CENTAUR R/B 3.2 18:40:21 10° W 18:42:31 24° NNW 18:44:09 10° NNE
Cosmos 389 Rocket 3.5 18:40:27 10° SSW 18:43:47 48° WNW 18:47:12 10° N
STARLINK-1205 4.0 18:40:13 10° SSW 18:44:07 41° SE 18:48:02 10° ENE
Okean 1 3.9 18:40:18 10° SSW 18:44:17 59° WNW 18:48:19 10° N
Meteor 1-19 Rocket 4.2 18:39:36 10° S 18:45:11 84° E 18:50:59 10° NNE
STARLINK-1080 3.6 18:41:34 10° WNW 18:45:44 86° SSW 18:49:17 14° ESE
STARLINK-1083 4.5 18:43:46 10° WNW 18:47:49 49° N 18:51:51 10° E
Iridium 51 4.3 18:43:49 10° S 18:47:58 84° W 18:51:48 10° N
SL-4 R/B 3.1 18:45:49 10° NNW 18:48:33 24° NE 18:50:52 12° E
STARLINK-1218 3.9 18:45:07 10° SW 18:49:04 45° SE 18:53:02 10° ENE
Cosmos 2278 Rocket 2.5 18:44:47 10° S 18:50:09 45° ESE 18:55:33 10° NE
STARLINK-1090 3.6 18:46:32 10° WNW 18:50:42 82° SSW 18:54:04 15° ESE
ISS -3.0 18:48:26 10° WNW 18:51:45 52° N 18:55:03 10° E
STARLINK-1125 4.4 18:48:46 10° WNW 18:52:49 51° NNE 18:56:52 10° E
NOSS 2-3 (E) 3.6 18:48:40 10° SSW 18:52:56 72° SE 18:58:02 10° NE
SL-8 R/B 3.6 18:48:08 10° WSW 18:52:57 80° SSE 18:57:47 10° E
STARLINK-1254 3.8 18:50:03 10° SW 18:54:02 48° SE 18:58:02 10° ENE
CARTOSAT-1 3.8 18:51:07 15° SE 18:54:30 55° ENE 18:58:45 10° N
Meteor 1-12 Rocket 4.3 18:50:01 10° N 18:55:39 67° ENE 19:00:21 15° SSE
STARLINK-1089 3.6 18:51:32 10° WNW 18:55:41 77° SSW 18:58:50 17° SE
STARLINK-1109 4.3 18:53:44 10° WNW 18:57:48 52° NNE 19:01:52 10° E
STARLINK-1231 3.7 18:55:00 10° SW 18:59:01 52° SE 19:03:03 10° ENE
STARLINK-1107 3.6 18:56:30 10° WNW 19:00:38 72° SSW 19:03:37 18° SE
Lacrosse 5 2.3 18:55:57 10° NW 19:00:58 58° NNE 19:05:40 12° ESE
Cosmos 1844 Rocket 4.1 18:55:43 10° WSW 19:01:04 41° NW 19:06:26 10° NNE
STARLINK-67 4.4 19:00:49 10° WNW 19:02:26 21° N 19:04:04 10° NE
STARLINK-1091 4.3 18:58:43 10° WNW 19:02:48 54° NNE 19:06:52 10° E
Terra 2.3 18:59:38 17° SE 19:03:05 47° ENE 19:07:39 10° N
Cosmos 1437 Rocket 3.8 19:01:38 19° SE 19:03:23 27° E 19:06:37 10° NE
STARLINK-1232 3.6 18:59:55 10° SW 19:03:58 56° SSE 19:08:02 10° ENE
STARLINK-1066 3.7 19:01:30 10° WNW 19:05:38 68° SSW 19:08:24 20° SE
Cosmos 2142 Rocket 4.5 18:59:50 10° N 19:06:01 87° E 19:11:26 14° S
STARLINK-1072 4.2 19:03:43 10° WNW 19:07:49 56° NNE 19:11:54 10° E
STARLINK-1208 3.6 19:04:51 10° SW 19:08:55 60° SSE 19:13:01 10° ENE
Cosmos 1452 Rocket 4.0 19:05:40 14° SSE 19:09:44 41° ESE 19:14:41 10° NE
STARLINK-1081 3.7 19:06:29 10° WNW 19:10:36 63° SSW 19:13:11 21° SE
IGS 5A 4.0 19:07:44 12° S 19:11:24 54° W 19:15:30 10° NNW
STARLINK-1228 3.6 19:09:17 10° WSW 19:12:35 60° NNW 19:15:53 10° ENE
STARLINK-1096 4.1 19:08:44 10° WNW 19:12:50 58° NNE 19:16:48 11° E
NOSS 2-3 (D) 3.7 19:08:33 10° SW 19:12:52 87° NW 19:18:03 10° NE
STARLINK-1271 3.5 19:09:49 10° SW 19:13:54 64° SSE 19:18:01 10° ENE
Cosmos 1300 Rocket 3.5 19:09:41 10° N 19:14:11 87° E 19:17:22 19° S
STARLINK-1070 3.8 19:11:28 10° WNW 19:15:33 59° SSW 19:17:58 23° SE
Okean 3 3.5 19:11:27 11° S 19:15:40 86° W 19:20:01 10° N
Cosmos 1420 Rocket 4.0 19:11:20 10° S 19:16:29 65° ESE 19:21:38 10° NNE
USA 245 4.2 19:13:17 11° SSW 19:16:34 35° WSW 19:19:27 10° NNW
STARLINK-1234 3.5 19:13:52 10° W 19:16:57 57° NNW 19:20:02 10° ENE
STARLINK-1079 4.1 19:13:40 10° WNW 19:17:47 60° NNE 19:21:33 12° E
STARLINK-1212 3.2 19:15:11 10° WSW 19:18:16 68° NNW 19:21:22 10° ENE
USA 215 3.7 19:11:53 10° ESE 19:18:20 63° NNE 19:24:47 10° NW
STARLINK-1209 3.6 19:15:28 10° W 19:18:34 55° NNW 19:21:41 10° ENE
STARLINK-1105 3.2 19:15:39 10° WSW 19:18:45 68° NNW 19:21:50 10° ENE
STARLINK-1154 3.5 19:14:46 10° SW 19:18:52 69° SSE 19:23:01 10° ENE
Meteor 1-13 Rocket 4.2 19:14:30 13° S 19:19:27 69° E 19:25:08 10° NNE
COSMOS 2406 3.7 19:13:50 10° NW 19:19:28 54° WSW 19:23:55 16° S
STARLINK-1247 3.2 19:16:34 10° WSW 19:19:39 67° NNW 19:22:46 10° ENE
STARLINK-1227 3.2 19:17:01 10° WSW 19:20:07 67° NNW 19:23:13 10° ENE
STARLINK-1069 3.8 19:16:27 10° WNW 19:20:30 55° SW 19:22:44 24° SE
STARLINK-1226 3.2 19:17:53 10° WSW 19:20:59 66° NNW 19:24:05 10° ENE
Cosmos 2221 Rocket 3.7 19:17:14 11° SSW 19:21:36 81° W 19:26:11 10° N
STARLINK-1215 3.3 19:18:49 10° WSW 19:21:55 65° NNW 19:25:02 10° ENE
STARLINK-1116 4.0 19:18:40 10° WNW 19:22:48 62° NNE 19:26:21 14° E
Crew Dragon 0.8 19:21:10 10° WNW 19:23:16 49° NNE 19:24:08 28° ENE
Meteor 2-4 Rocket 3.8 19:17:56 10° SSW 19:23:19 76° WNW 19:28:41 10° N
STARLINK-1217 3.3 19:20:36 10° WSW 19:23:41 64° NNW 19:26:48 10° ENE
STARLINK-1197 3.5 19:19:43 10° SW 19:23:51 73° SSE 19:28:00 10° ENE
USA 229 DEB 4.4 19:17:27 10° WSW 19:23:55 57° NW 19:30:47 10° NE
USA 229 4.4 19:17:34 10° WSW 19:24:01 57° NW 19:30:53 10° NE
STARLINK-1229 3.3 19:21:31 10° WSW 19:24:37 63° NNW 19:27:43 10° ENE
Cosmos 371 Rocket 3.5 19:21:27 17° S 19:25:02 53° ESE 19:29:48 10° NNE
STARLINK-1270 3.3 19:22:23 10° WSW 19:25:29 62° NNW 19:28:35 10° ENE
STARLINK-1085 3.9 19:21:27 10° WNW 19:25:29 51° SW 19:27:32 26° SSE
SPOT 1/Viking Rocket 4.1 19:21:53 14° S 19:26:18 54° W 19:31:23 10° NNW
STARLINK-1189 3.4 19:24:14 10° WSW 19:27:19 61° NNW 19:30:25 10° ENE
Resurs 01 Rocket 4.1 19:24:33 10° SW 19:27:29 17° W 19:30:27 10° NW
STARLINK-1188 3.4 19:25:06 10° WSW 19:28:12 60° NNW 19:31:17 10° ENE
STARLINK-1198 3.5 19:24:39 10° WSW 19:28:48 78° SSE 19:32:57 10° ENE
STARLINK-1235 3.7 19:25:53 10° W 19:28:55 51° NNW 19:31:57 10° ENE
MTI 4.2 19:26:04 10° NNE 19:29:05 41° E 19:29:56 33° SE
STARLINK-1187 3.6 19:26:16 10° W 19:29:18 55° NNW 19:32:22 10° ENE
Cosmos 1674 Rocket 3.7 19:27:45 23° SSE 19:30:15 56° E 19:34:34 10° NNE
STARLINK-1086 4.0 19:26:27 10° WNW 19:30:27 47° SW 19:32:19 27° SSE
STARLINK-1191 3.5 19:27:36 10° W 19:30:40 58° NNW 19:33:45 10° ENE
NOSS 3 (A) 4.2 19:29:15 18° SSW 19:31:05 74° SE 19:34:05 10° NE
STARLINK-1221 3.5 19:28:29 10° W 19:31:33 57° NNW 19:34:37 10° ENE
STARLINK-1222 3.5 19:29:22 10° W 19:32:26 57° NNW 19:35:30 10° ENE
STARLINK-1094 3.9 19:28:38 10° WNW 19:32:47 68° NNE 19:35:55 17° ESE
NOSS 3-1 (A) 3.9 19:27:17 10° SW 19:32:52 63° NW 19:39:27 10° NE
Nadezhda 4 Rocket 4.2 19:29:04 20° SSE 19:33:10 52° E 19:39:06 10° NNE
STARLINK-1214 3.5 19:30:18 10° W 19:33:21 56° NNW 19:36:26 10° ENE
STARLINK-1199 3.5 19:29:39 10° WSW 19:33:48 83° SSE 19:37:58 10° ENE
STARLINK-1095 4.1 19:31:26 10° WNW 19:35:24 44° SW 19:37:05 28° SSE
STARLINK-1269 4.5 19:36:26 28° SE 19:36:26 28° SE 19:39:54 10° ENE
Abrixas rocket 1.8 19:33:25 10° W 19:36:22 89° E 19:38:15 20° E
SPOT 5 3.3 19:33:14 19° S 19:36:53 67° WSW 19:42:11 10° NNW
Meteor 1-4 Rocket 4.4 19:34:25 10° SW 19:37:26 28° WNW 19:40:27 10° N
Cosmos 1378 Rocket 3.8 19:35:33 26° SSE 19:37:46 52° E 19:42:04 10° NNE
STARLINK-1117 3.8 19:33:37 10° WNW 19:37:46 72° NNE 19:40:42 19° ESE
STARLINK-1210 3.5 19:34:36 10° WSW 19:38:46 87° SSE 19:42:56 10° ENE
Cosmos 2279 Rocket 4.3 19:32:48 10° NNW 19:39:01 66° W 19:44:00 16° S
STARLINK-1077 4.2 19:36:26 10° WNW 19:40:21 41° SW 19:41:51 29° S
Cosmos 1741 Rocket 4.0 19:35:56 10° NNW 19:41:11 78° ENE 19:44:11 26° SSE
STARLINK-1200 4.4 19:41:14 30° SE 19:41:19 30° SE 19:44:57 10° ENE
CENTAUR R/B 4.4 19:34:39 10° NW 19:41:32 36° NNE 19:49:11 10° E
STARLINK-1078 3.7 19:38:35 10° WNW 19:42:45 75° NNE 19:45:28 21° ESE
STARLINK-1219 3.6 19:39:35 10° WSW 19:43:44 88° NNW 19:47:55 10° ENE
STARLINK-1075 4.3 19:41:28 10° WNW 19:45:18 38° SW 19:46:39 29° S
Cosmos 2297 4.3 19:43:34 25° SSE 19:46:09 38° ESE 19:51:23 10° NE
STARLINK-1192 4.3 19:46:00 32° SSE 19:46:16 32° SE 19:49:59 10° ENE
STARLINK-1108 3.7 19:43:34 10° WNW 19:47:44 79° NNE 19:50:15 23° ESE
Cosmos 1975 Rocket 4.4 19:46:39 22° ESE 19:47:56 25° E 19:51:33 10° NNE
STARLINK-1211 3.6 19:44:33 10° WSW 19:48:43 84° NNW 19:52:53 10° ENE
Okean 2 Rocket 4.3 19:45:34 10° NNW 19:49:39 36° W 19:52:51 15° SSW
STARLINK-1093 4.5 19:46:28 10° WNW 19:50:16 35° SW 19:51:26 29° S
STARLINK-1244 4.2 19:50:46 34° SSE 19:51:11 35° SE 19:54:59 10° ENE
BREEZE M DEB (TANK) 2.4 19:47:00 10° WSW 19:51:27 50° SSE 19:51:51 45° SE
STARLINK-1071 3.6 19:48:33 10° WNW 19:52:43 83° NNE 19:55:02 25° ESE
STARLINK-1245 3.7 19:49:33 10° WSW 19:53:42 80° NNW 19:57:53 10° ENE
Cosmos 1850 Rocket 4.1 19:49:57 10° NNW 19:55:20 80° WSW 19:58:13 28° SSE
STARLINK-1138 4.1 19:55:33 35° SSE 19:56:09 37° SE 20:00:00 10° ENE
STARLINK-1110 3.6 19:52:45 10° WNW 19:56:55 87° NNE 19:59:04 28° ESE
STARLINK-1203 4.0 19:57:00 33° S 19:58:07 40° SE 20:02:03 10° ENE
STARLINK-1233 3.7 19:54:32 10° WSW 19:58:41 76° NNW 20:02:51 10° ENE
Cosmos 2082 Rocket 2.4 19:53:39 10° NNW 19:59:19 66° WSW 20:02:27 27° S
STARLINK-1143 4.0 20:00:20 36° S 20:01:06 40° SE 20:05:00 10° ENE
ERBS 2.0 20:00:02 16° SW 20:02:31 79° SE 20:05:51 10° NE
STARLINK-1124 3.5 19:58:31 10° WNW 20:02:41 88° SSW 20:04:36 31° ESE
BREEZE-M DEB (TANK) 4.3 20:01:34 29° SSE 20:02:47 33° SE 20:12:28 10° ENE
STARLINK-1204 3.8 19:59:32 10° WSW 20:03:42 72° NNW 20:07:50 10° ENE
ERS-1 Rocket 4.2 20:00:29 15° SSW 20:04:01 34° W 20:08:36 10° NNW
Cosmos 1110 Rocket 4.3 20:03:17 30° SSE 20:05:26 49° ESE 20:10:25 10° NNE
Aureole 2 4.3 20:02:21 10° NNW 20:05:47 66° ENE 20:06:23 51° ESE
SeaSat 1 2.4 20:00:59 10° NE 20:05:54 62° ESE 20:08:33 27° S
STARLINK-1241 3.9 20:05:03 36° S 20:06:03 43° SE 20:10:00 10° ENE
Okean 1 Rocket 3.2 20:03:10 10° NNW 20:07:39 73° W 20:09:39 32° S
STARLINK-1122 3.5 20:03:30 10° WNW 20:07:40 84° SSW 20:09:23 34° ESE
Cosmos 1833 Rocket 3.7 20:02:55 10° NW 20:07:59 36° WSW 20:11:09 20° SSW
STARLINK-1238 3.9 20:04:31 10° WSW 20:08:39 69° NNW 20:12:47 10° ENE
STARLINK-1113 4.5 20:05:44 10° WNW 20:09:47 50° NNE 20:13:50 10° E
STARLINK-1239 3.8 20:09:50 36° S 20:11:01 47° SE 20:15:00 10° ENE
Cosmos 1092 Rocket 4.0 20:07:42 28° SSE 20:11:01 64° E 20:17:05 10° NNE
STARLINK-1126 3.5 20:08:26 10° WNW 20:12:35 79° SSW 20:14:07 38° SE
STARLINK-1201 4.0 20:09:31 10° WSW 20:13:39 66° NNW 20:17:47 10° ENE
Cosmos 304 Rocket 3.7 20:11:44 30° S 20:14:01 72° ESE 20:18:49 10° NNE
STARLINK-1119 4.4 20:10:44 10° WNW 20:14:47 51° NNE 20:18:47 10° E
USA 238 DEB 4.3 20:08:15 10° NW 20:15:16 56° NE 20:21:34 14° ESE
USA 238 4.4 20:08:20 10° NW 20:15:22 56° NE 20:21:42 14° ESE
STARLINK-1240 3.7 20:14:37 35° SSW 20:15:59 50° SE 20:20:00 10° ENE
Cosmos 2369 Rocket 3.5 20:15:28 21° ESE 20:16:34 22° ESE 20:20:52 10° NE
Cosmos 1805 3.2 20:13:04 10° N 20:17:01 89° E 20:18:10 45° S
STARLINK-1082 3.5 20:13:28 10° WNW 20:17:37 74° SSW 20:18:57 41° SE
Cosmos 332 Rocket 4.0 20:14:06 18° SSW 20:17:44 73° WNW 20:22:40 10° NNE
EO 1 Del DPAF 3.4 20:14:08 10° NNE 20:17:52 55° ESE 20:18:36 46° SE
STARLINK-1206 4.1 20:14:32 10° W 20:18:38 63° NNW 20:22:46 10° ENE
Okean 2 3.7 20:17:46 41° SE 20:18:48 52° E 20:22:51 10° NNE
Aureole 2 Rocket 2.1 20:19:11 64° ESE 20:19:15 65° ESE 20:22:20 10° NNE
STARLINK-1114 4.3 20:15:44 10° WNW 20:19:48 53° NNE 20:23:35 12° E
Cosmos 1066 Rocket 4.2 20:16:25 22° SSW 20:19:58 73° WNW 20:25:22 10° N
Cosmos 1455 Rocket 3.6 20:16:22 10° N 20:20:36 47° ENE 20:22:00 34° SE
STARLINK-1216 3.6 20:19:23 33° SSW 20:20:56 54° SE 20:24:59 10° ENE
SL-4 R/B 2.7 20:18:56 10° NW 20:21:40 27° WSW 20:21:42 27° WSW
STARLINK-1100 3.5 20:18:27 10° WNW 20:22:35 70° SSW 20:23:44 44° SE
EXPRESS MD2 4.1 20:19:41 18° SW 20:22:42 57° SSE 20:30:46 10° ENE
STARLINK-1205 4.1 20:19:31 10° W 20:23:38 60° NNW 20:27:45 10° ENE
STARLINK-1130 (DARKSAT) 4.3 20:20:42 10° WNW 20:24:47 55° NNE 20:28:20 13° E
STARLINK-1237 3.6 20:24:09 31° SSW 20:25:55 58° SSE 20:29:59 10° ENE
STARLINK-1083 3.6 20:23:26 10° WNW 20:27:33 65° SSW 20:28:30 48° SSE
Cosmos 1943 Rocket 2.9 20:26:06 31° SE 20:27:35 36° ESE 20:32:38 10° NE
ISS -3.6 20:25:17 10° WNW 20:28:26 54° SW 20:28:26 54° SW
STARLINK-1218 4.2 20:24:31 10° W 20:28:37 58° NNW 20:32:44 10° ENE
Cosmos 1378 3.1 20:27:53 44° SSW 20:28:57 76° W 20:32:42 10° N
Cosmos 1331 Rocket 3.9 20:26:58 34° S 20:29:13 69° ESE 20:34:23 10° NNE
STARLINK-1084 4.2 20:25:41 10° WNW 20:29:47 57° NNE 20:33:07 15° E
Cosmos 1842 3.5 20:30:09 45° SE 20:30:49 52° E 20:34:38 10° NNE
STARLINK-1202 3.5 20:28:57 29° SW 20:30:53 63° SSE 20:35:00 10° ENE
STARLINK-1125 3.6 20:28:25 10° WNW 20:32:31 61° SSW 20:33:17 50° SSE
Cosmos 1025 Rocket 4.4 20:31:50 23° ESE 20:32:33 24° E 20:36:00 10° NE
STARLINK-1254 4.3 20:29:32 10° W 20:33:37 56° NNW 20:37:43 10° ENE
Cosmos 2195 Rocket 4.5 20:30:15 30° S 20:33:38 80° E 20:39:58 10° N
Cosmos 2278 Rocket 3.7 20:29:09 10° WSW 20:34:22 36° NW 20:39:37 10° NNE
STARLINK-1098 4.1 20:30:41 10° WNW 20:34:47 59° NNE 20:37:55 16° E
SL-8 R/B 3.6 20:30:42 10° W 20:35:32 88° S 20:40:04 12° E
STARLINK-1109 3.7 20:33:24 10° WNW 20:37:28 57° SSW 20:38:03 51° S
STARLINK-1231 4.4 20:34:33 10° W 20:38:38 54° NNW 20:42:43 10° ENE
STARLINK-1123 4.0 20:35:39 10° WNW 20:39:46 62° NNE 20:42:41 18° E
STARLINK-1246 3.4 20:38:28 25° SW 20:40:49 72° SSE 20:44:57 10° ENE
Terra 3.5 20:38:31 16° SW 20:41:03 24° W 20:44:53 10° NW
STARLINK-1091 3.7 20:38:23 10° WNW 20:42:25 53° SW 20:42:50 50° SSW
ALOS 2 3.0 20:41:59 37° SE 20:43:24 55° ENE 20:47:43 10° N
STARLINK-1232 4.4 20:39:34 10° W 20:43:38 52° NNW 20:47:42 10° ENE
Lacrosse 5 2.5 20:39:09 10° WNW 20:43:49 38° SW 20:44:50 34° SSW
STARLINK-1097 4.0 20:40:38 10° WNW 20:44:46 64° NNE 20:47:28 20° E
Thor Agena Rocket 3.6 20:39:27 10° NNE 20:44:48 80° WNW 20:47:30 30° SSW
Cosmos 1428 Rocket 4.5 20:41:45 32° S 20:44:51 77° E 20:51:11 10° NNE
STARLINK-1224 3.4 20:43:14 23° SW 20:45:47 76° SSE 20:49:56 10° ENE
Spot 4 3.9 20:44:17 39° S 20:46:03 74° WSW 20:50:56 10° NNW
STARLINK-1072 3.8 20:43:24 10° WNW 20:47:25 49° SW 20:47:37 48° SSW
STARLINK-1208 4.5 20:44:33 10° W 20:48:37 51° NNW 20:52:41 10° ENE
STARLINK-1099 3.9 20:45:35 10° WNW 20:49:44 67° NNE 20:52:14 23° E
STARLINK-1225 3.4 20:48:01 20° WSW 20:50:46 81° SSE 20:54:56 10° ENE
STARLINK-1096 3.9 20:48:25 10° WNW 20:52:23 45° SW 20:52:25 45° SW
STARLINK-1104 3.8 20:50:35 10° WNW 20:54:44 70° NNE 20:57:01 25° E
STARLINK-1230 3.5 20:52:48 19° WSW 20:55:44 86° SSE 20:59:54 10° ENE
Cosmos 1544 Rocket 3.5 20:52:04 10° N 20:56:25 79° E 20:57:29 50° SSE
STARLINK-1079 4.1 20:53:22 10° WNW 20:57:10 42° SW 20:57:10 42° SW
Cosmos 1553 Rocket 4.0 20:51:38 10° N 20:58:01 77° E 21:00:53 35° SSE
STARLINK-1144 3.7 20:55:34 10° WNW 20:59:44 74° NNE 21:01:48 28° ESE
STARLINK-1243 3.5 20:57:34 17° WSW 21:00:43 90° NNW 21:04:53 10° ENE
SL-4 R/B 2.9 21:01:57 25° NNW 21:01:57 25° NNW 21:03:05 10° NNW
Cosmos 1726 3.5 20:57:56 10° NNE 21:01:11 28° ENE 21:01:55 26° E
USA 215 3.4 20:58:28 32° SSE 21:01:26 56° SW 21:07:52 10° WNW
Cosmos 1766 4.4 20:58:32 10° NNW 21:02:07 33° W 21:03:05 29° WSW
STARLINK-1116 4.3 20:58:24 10° WNW 21:01:58 38° SW 21:01:58 38° SW
Aureole 3 Rocket 3.9 20:59:02 10° N 21:04:12 88° W 21:07:23 34° S
Cosmos 2026 Rocket 4.1 21:01:21 30° SSW 21:04:39 73° W 21:11:01 10° N
STARLINK-1103 3.7 21:00:33 10° WNW 21:04:43 78° NNE 21:06:35 31° ESE
STARLINK-1236 3.6 21:02:20 15° WSW 21:05:42 85° NNW 21:09:52 10° ENE
SL-27 R/B 2.5 21:02:05 10° NNW 21:05:43 71° ENE 21:06:05 64° ESE
Cosmos 1953 3.2 21:03:23 10° N 21:07:11 40° ENE 21:08:04 34° ESE
Cosmos 1461 3.2 21:06:45 29° WSW 21:08:45 65° NW 21:13:08 10° NE
Cosmos 1340 Rocket 4.1 21:05:10 10° N 21:08:49 32° ENE 21:09:57 27° ESE
STARLINK-1101 3.6 21:05:31 10° WNW 21:09:41 82° NNE 21:11:21 35° ESE
NOSS 2-2 (D) 3.0 21:09:54 62° SW 21:10:28 89° SSE 21:14:32 10° NE
Cosmos 1271 Rocket 2.8 21:11:25 57° SE 21:11:46 60° E 21:15:36 10° NNE
Abrixas rocket 4.2 21:08:56 10° W 21:09:45 17° W 21:09:45 17° W
NOSS 3-2 (C) 4.2 21:05:35 10° NW 21:13:00 75° NE 21:19:44 17° SE
STARLINK-1102 3.5 21:10:31 10° WNW 21:14:41 86° NNE 21:16:09 39° ESE
STARLINK-1269 3.7 21:11:52 12° WSW 21:15:39 77° NNW 21:19:48 10° ENE
Cosmos 1758 3.2 21:11:35 10° N 21:15:39 87° WSW 21:16:19 61° S
Cosmos 1900 4.3 21:13:02 10° NW 21:18:02 70° WSW 21:19:30 45° S
Cosmos 1707 2.7 21:18:47 60° SE 21:19:13 66° E 21:23:07 10° NNE
Cosmos 2292 Rocket 4.3 21:18:43 36° ESE 21:19:29 39° E 21:23:01 10° NNE
STARLINK-1111 3.5 21:15:29 10° WNW 21:19:39 90° SSW 21:20:55 44° ESE
STARLINK-1200 3.7 21:16:39 11° WSW 21:20:39 74° NNW 21:24:49 10° ENE
YAOGAN 11 4.3 21:21:15 42° SE 21:22:32 62° ENE 21:26:50 10° N
NOSS 3-4 (A) 4.2 21:22:43 29° SE 21:23:54 31° ESE 21:29:16 10° NE
NOSS 3-4 (C) 4.3 21:22:49 28° SE 21:24:00 31° ESE 21:29:22 10° NE
STARLINK-1073 3.5 21:20:29 10° WNW 21:24:39 85° SSW 21:25:43 49° ESE
Cosmos 1975 Rocket 4.2 21:23:46 25° WSW 21:25:37 36° WNW 21:29:45 10° N
STARLINK-1192 3.8 21:21:30 10° WSW 21:25:39 70° NNW 21:29:47 10° ENE
ATLAS CENTAUR R/B 4.1 21:24:45 10° N 21:25:48 13° NNE 21:27:02 10° NE
ATLAS 3B R/B 3.6 21:22:41 10° NW 21:29:11 47° NE 21:35:52 10° ESE
NOSS 2-2 (E) 3.9 21:27:52 28° WSW 21:29:31 52° NW 21:33:42 10° NE
STARLINK-1121 3.4 21:25:27 10° WNW 21:29:36 81° SSW 21:30:28 54° SE
STARLINK-1244 3.9 21:26:29 10° WSW 21:30:37 67° NNW 21:34:45 10° ENE
Meteor 2-10 3.9 21:26:07 10° N 21:31:14 82° E 21:32:53 44° SSE
Aureole 3 3.6 21:28:48 10° N 21:32:28 44° ENE 21:32:49 42° E
CENTAUR R/B 3.2 21:25:23 10° NW 21:33:23 83° NE 21:40:34 17° SE
Cosmos 2266 Rocket 4.0 21:31:36 36° SSE 21:34:05 66° E 21:40:07 10° NNE
STARLINK-1106 3.4 21:30:26 10° WNW 21:34:35 76° SSW 21:35:16 59° SE
STARLINK-1138 4.0 21:31:30 10° WSW 21:35:37 64° NNW 21:39:44 10° ENE
SL-4 R/B 4.1 21:38:06 19° ESE 21:38:06 19° ESE 21:40:22 10° E
STARLINK-1203 4.1 21:33:39 10° W 21:37:49 63° NNW 21:42:00 10° ENE
Cosmos 1242 Rocket 3.2 21:37:35 41° WSW 21:38:09 45° WNW 21:41:43 10° N
STARLINK-1112 3.5 21:35:26 10° WNW 21:39:34 71° SSW 21:40:03 63° SSE
STARLINK-1143 4.1 21:36:29 10° W 21:40:37 61° NNW 21:44:43 10° ENE
Cosmos 2082 Rocket 4.5 21:41:27 10° W 21:42:16 10° W 21:43:05 10° WSW
Cosmos 1503 Rocket 4.0 21:37:09 10° NNW 21:42:29 84° ENE 21:44:32 39° SSE
SeaSat 1 4.3 21:39:00 10° N 21:43:06 27° NW 21:47:11 10° WSW
Cosmos 1674 3.6 21:43:44 34° ESE 21:44:04 35° E 21:47:32 10° NNE
ATLAS CENTAUR R/B 3.2 21:44:37 19° ESE 21:44:37 19° ESE 21:47:21 10° ENE
STARLINK-1128 3.5 21:40:25 10° WNW 21:44:32 67° SSW 21:44:50 64° S
Cosmos 1470 3.7 21:41:19 10° NNW 21:44:52 34° W 21:45:16 33° WSW
STARLINK-1241 4.1 21:41:29 10° W 21:45:35 59° NNW 21:49:42 10° ENE
STARLINK-1113 3.5 21:45:24 10° WNW 21:49:30 62° SSW 21:49:36 62° SSW
Cosmos 883 Rocket 4.4 21:43:38 10° N 21:49:50 85° E 21:52:32 36° SSE
STARLINK-1239 4.2 21:46:29 10° W 21:50:35 57° NNW 21:54:40 10° ENE
Cosmos 1867 3.9 21:46:17 10° NW 21:51:44 65° NE 21:55:32 20° SE
ATLAS 2AS CENTAUR R/B 3.2 21:48:30 32° S 21:52:13 57° ESE 21:59:57 10° NE
NOSS 2-2 (C) 4.4 21:50:29 23° W 21:52:23 41° NW 21:56:23 10° NNE
Meteor 2-19 Rocket 4.4 21:50:34 37° S 21:53:12 88° E 21:59:22 10° N
STARLINK-1119 3.6 21:50:23 10° WNW 21:54:23 58° SW 21:54:23 58° SW
STARLINK-1240 4.3 21:51:31 10° W 21:55:35 55° NNW 21:59:41 10° ENE
BREEZE-M DEB (TANK) 3.8 21:48:33 10° WNW 21:56:16 39° SW 21:56:23 39° SW
Cosmos 968 Rocket 3.7 21:51:37 10° NNW 21:56:41 56° WSW 21:58:02 42° SSW
Cosmos 1354 Rocket 3.9 21:52:01 10° NNW 21:57:20 83° WSW 21:59:16 41° SSE
Helios 1A 3.5 21:57:21 41° WSW 21:57:55 44° W 22:01:57 10° NNW
NOSS 3-2 (A) 4.3 21:51:47 10° NW 21:59:04 52° WSW 22:02:51 31° S
STARLINK-1114 3.7 21:55:24 10° WNW 21:59:11 53° SW 21:59:11 53° SW
Cosmos 2369 Rocket 2.4 21:57:13 30° SW 22:00:06 66° WNW 22:05:45 10° NNE
STARLINK-1216 4.4 21:56:31 10° W 22:00:35 53° NNW 22:04:40 10° ENE
Cosmos 1908 3.2 22:00:29 10° N 22:04:18 71° E 22:04:55 57° SE
STARLINK-1130 (DARKSAT) 3.9 22:00:22 10° WNW 22:03:56 48° WSW 22:03:56 48° WSW
Cosmos 2315 Rocket 3.9 21:58:16 10° N 22:04:31 89° E 22:07:22 35° S
CZ-2D R/B 4.3 22:01:39 10° NE 22:04:43 15° E 22:07:36 10° ESE
STARLINK-1237 4.4 22:01:32 10° W 22:05:35 51° NNW 22:09:40 10° ENE
USA 238 DEB 4.2 21:59:25 10° NW 22:06:13 45° WSW 22:08:58 32° SSW
USA 238 4.2 21:59:30 10° NW 22:06:18 46° WSW 22:09:06 32° SSW
RESURS DK-1 4.3 22:07:31 17° ESE 22:07:59 17° ESE 22:10:41 10° ENE
STARLINK-1084 4.1 22:05:22 10° WNW 22:08:43 43° WSW 22:08:43 43° WSW
Cosmos 1025 Rocket 4.1 22:08:42 29° WSW 22:09:59 35° WNW 22:13:57 10° N
STARLINK-1202 4.5 22:06:33 10° W 22:10:36 50° NNW 22:14:40 10° ENE
Cosmos 1943 Rocket 3.1 22:07:36 19° WSW 22:11:15 42° NW 22:16:35 10° NNE
Cosmos 1726 Rocket 3.7 22:06:59 10° N 22:11:17 65° ENE 22:12:35 42° SE
Meteor 2-5 Rocket 4.1 22:10:21 33° SSE 22:12:34 53° E 22:18:00 10° NNE
STARLINK-1098 4.3 22:10:23 10° WNW 22:13:30 38° WSW 22:13:30 38° WSW
Resurs 1-4 Rocket 4.0 22:11:20 10° NE 22:15:08 20° E 22:18:01 13° SE
Helios 1B rocket 2.3 22:11:30 10° NNE 22:15:38 82° ESE 22:16:32 54° S
Cosmos 2098 Rocket 4.2 22:13:59 34° S 22:17:13 88° E 22:24:40 10° N
SL-8 R/B 3.9 22:13:17 10° W 22:17:55 45° SSW 22:17:57 45° SSW
STARLINK-1123 4.5 22:15:22 10° WNW 22:18:17 34° WSW 22:18:17 34° WSW
ALOS 2 4.4 22:19:22 17° WSW 22:20:04 18° W 22:23:05 10° NW
KORONAS-FOTON 3.6 22:20:08 64° S 22:20:41 88° E 22:24:32 10° N
ATLAS 5 CENTAUR R/B 2.2 22:23:07 33° WNW 22:23:38 38° NW 22:25:39 10° NNE
STARLINK-1228 3.5 22:23:13 10° WNW 22:26:32 61° NNE 22:29:49 10° ESE
STARLINK-1234 3.4 22:26:13 10° WNW 22:29:19 59° NNE 22:32:24 10° ESE
GEOS 3 Rocket 3.5 22:26:35 28° SSE 22:29:22 75° SW 22:34:41 10° NW
STARLINK-1212 3.7 22:27:35 10° WNW 22:30:38 50° NNE 22:33:39 10° E
COSMOS 2455 2.9 22:28:33 35° S 22:31:03 65° ESE 22:37:02 10° NE
STARLINK-1105 3.7 22:28:04 10° WNW 22:31:06 50° NNE 22:34:07 10° E
STARLINK-1209 3.3 22:28:07 10° WNW 22:31:15 63° NNE 22:34:23 10° ESE
STARLINK-1247 3.7 22:28:58 10° WNW 22:32:01 51° NNE 22:35:05 10° E
STARLINK-1227 3.7 22:29:26 10° WNW 22:32:28 51° NNE 22:35:30 10° E
STARLINK-1226 3.7 22:30:17 10° WNW 22:33:20 52° NNE 22:36:24 10° E
STARLINK-1215 3.7 22:31:13 10° WNW 22:34:17 52° NNE 22:37:22 10° E
Cosmos 2058 Rocket 3.1 22:30:26 10° N 22:34:51 74° E 22:36:30 38° SSE
BREEZE-M DEB (TANK) 2.2 22:30:00 10° W 22:35:39 75° N 22:38:02 10° E
STARLINK-1217 3.6 22:32:59 10° WNW 22:36:03 53° NNE 22:39:07 10° E
Cosmos 1726 3.7 22:33:21 10° NW 22:36:16 22° W 22:36:25 22° W
STARLINK-1229 3.6 22:33:54 10° WNW 22:36:59 54° NNE 22:40:03 10° E
Cosmos 2228 3.2 22:33:37 10° NNW 22:37:48 55° W 22:38:43 44° SW
STARLINK-1270 3.6 22:34:46 10° WNW 22:37:51 54° NNE 22:40:55 10° E
IRAS Rocket 4.2 22:35:38 30° SSE 22:38:34 88° WSW 22:44:10 10° NNW
SJ 16-02 3.8 22:35:24 10° N 22:38:44 20° NE 22:42:03 10° ESE
Meteor 1-29 2.8 22:36:06 10° N 22:39:30 80° WNW 22:39:53 67° SW
STARLINK-1189 3.5 22:36:36 10° WNW 22:39:41 55° NNE 22:42:46 10° E
STARLINK-1188 3.5 22:37:29 10° WNW 22:40:34 56° NNE 22:43:40 10° E
STARLINK-1235 3.2 22:38:11 10° WNW 22:41:16 66° NNE 22:44:21 10° ESE
STARLINK-1187 3.3 22:38:36 10° WNW 22:41:40 61° NNE 22:44:45 10° ESE
STARLINK-1191 3.4 22:39:58 10° WNW 22:43:02 58° NNE 22:46:06 10° E
Cosmos 1953 4.1 22:40:27 10° NW 22:43:17 19° W 22:43:45 18° W
Cosmos 1174 3.2 22:43:31 66° SSE 22:43:43 69° ESE 22:47:19 10° NE
BREEZE-M R/B 4.2 22:44:12 27° SE 22:44:12 27° SE 22:46:54 10° E
STARLINK-1221 3.4 22:40:50 10° WNW 22:43:55 58° NNE 22:46:59 10° E
SL-14 R/B 3.4 22:43:13 45° SSE 22:44:11 64° E 22:48:01 10° NNE
STARLINK-1222 3.4 22:41:44 10° WNW 22:44:48 59° NNE 22:47:52 10° ESE
Cosmos 1340 Rocket 4.3 22:41:52 10° NW 22:45:07 24° W 22:45:32 23° W
STARLINK-1214 3.4 22:42:39 10° WNW 22:45:43 59° NNE 22:48:48 10° ESE
Okean 1-7 Rocket 3.6 22:44:37 42° S 22:46:07 81° E 22:50:39 10° NNE
Cosmos 921 Rocket 3.7 22:46:47 32° SSE 22:48:09 42° ESE 22:52:13 10° NNE
Cosmos 1300 2.7 22:45:09 10° N 22:48:59 75° E 22:50:08 43° SSE
Cosmos 2219 4.2 22:45:07 10° NNW 22:50:36 46° NE 22:56:02 10° SE
STARLINK-1199 4.5 22:49:39 10° WNW 22:53:43 52° NNE 22:57:47 10° E
COSMOS 2487 3.5 22:51:00 10° NW 22:53:49 30° W 22:53:49 30° W
Cosmos 1626 Rocket 4.4 22:52:29 26° SE 22:54:23 42° E 22:58:29 10° NNE
Cosmos 1656 Rocket 4.3 22:52:30 23° WSW 22:55:47 49° NW 23:01:14 10° NNE
Nadezhda 1 Rocket 4.2 22:50:36 10° N 22:56:44 70° ENE 23:01:16 19° SSE
STARLINK-1210 4.4 22:54:37 10° WNW 22:58:42 54° NNE 23:02:46 10° E
Cosmos 1626 2.0 22:59:58 49° SSW 23:00:52 78° W 23:04:36 10° N
STARLINK-1219 4.3 22:59:36 10° WNW 23:03:42 55° NNE 23:07:47 10° E
STARLINK-60 2.8 23:04:02 65° S 23:04:12 67° SSE 23:07:24 10° ENE
NOSS 5 (C) 4.5 23:03:10 10° NW 23:06:21 59° SW 23:07:15 43° S
Cosmos 2297 Rocket 3.1 23:00:54 10° NNW 23:06:25 49° NE 23:11:53 10° SE
MOZ.5/SAFIR/RUBIN 5/SL-8 3.7 23:05:36 27° SSE 23:08:07 88° E 23:12:47 10° NNW
STARLINK-1211 4.3 23:04:34 10° WNW 23:08:41 57° NNE 23:12:46 10° E
UNK 4.0 23:05:40 21° SSE 23:08:44 69° ENE 23:13:19 10° N
Cosmos 220 Rocket 4.4 23:09:37 31° S 23:11:26 54° ESE 23:15:47 10° NNE
CZ-4B R/B 4.4 23:07:05 10° NNE 23:11:57 41° E 23:15:20 19° SSE
STARLINK-1245 4.2 23:09:34 10° WNW 23:13:41 60° NNE 23:17:48 10° E
SL-19 R/B 4.3 23:08:34 10° NNE 23:13:55 70° WNW 23:16:57 28° SSW
Cosmos 1812 Rocket 4.1 23:09:45 10° N 23:14:12 57° ENE 23:17:22 18° SSE
NOSS 3-4 (A) 3.8 23:10:07 20° WSW 23:14:22 62° NW 23:20:46 10° NE
NOSS 3-4 (C) 3.8 23:10:13 20° WSW 23:14:27 62° NW 23:20:53 10° NE
Timation 2 Rocket 3.9 23:08:46 10° NW 23:15:06 67° WSW 23:19:35 19° SSE
SL-16 R/B 2.5 23:10:56 17° SSE 23:15:51 87° ENE 23:22:04 10° NNW
SL-4 R/B 2.3 23:13:40 30° SW 23:16:01 71° SSE 23:20:43 10° ENE
STARLINK-1233 4.1 23:14:32 10° WNW 23:18:40 62° NNE 23:22:47 10° E
Cosmos 1777 Rocket 4.4 23:14:28 10° NNW 23:19:27 46° WSW 23:21:42 29° SSW
ATLAS 3B R/B 2.9 23:13:27 10° NW 23:20:01 52° WSW 23:25:35 16° SSE
Cosmos 1437 2.5 23:20:41 56° SW 23:21:10 73° WNW 23:24:11 10° N
ATLAS CENTAUR R/B 1.7 23:20:47 28° WSW 23:22:55 63° NW 23:27:01 10° NNE
STARLINK-1204 4.0 23:19:32 10° WNW 23:23:40 65° NNE 23:27:48 10° ESE
CENTAUR R/B 3.9 23:16:42 10° NW 23:23:41 32° WSW 23:27:41 22° SSW
Cosmos 1602 Rocket 3.6 23:24:49 27° S 23:27:04 72° E 23:31:24 10° NNE
STARLINK-1238 3.9 23:24:30 10° WNW 23:28:39 68° NNE 23:32:45 10° ESE
FALCON 9 DEB 3.8 23:28:51 34° SSE 23:29:27 37° SE 23:32:41 10° ENE
Meteor 2-1 Rocket 4.1 23:25:42 10° NNW 23:31:15 89° E 23:35:42 16° S
Cosmos 1455 3.0 23:27:46 10° N 23:31:25 46° ENE 23:34:30 13° SSE
Cosmos 1745 Rocket 3.9 23:28:06 24° SSW 23:31:59 79° W 23:38:09 10° N
STARLINK-29 3.0 23:32:09 45° SSW 23:32:51 59° SSE 23:36:00 10° ENE
STARLINK-1201 3.9 23:29:30 10° WNW 23:33:39 71° NNE 23:37:47 10° ESE
GP-B 3.9 23:30:47 10° NNE 23:35:07 49° E 23:38:45 14° SSE
BREEZE-M DEB (TANK) 4.3 23:31:49 10° W 23:35:28 36° SSW 23:43:28 10° SE
STARLINK-1206 3.8 23:34:29 10° WNW 23:38:38 75° NNE 23:42:47 10° ESE
Cosmos-2242 4.0 23:34:57 10° N 23:39:05 44° ENE 23:43:09 10° SSE
Cosmos 2227 Rocket 2.4 23:36:22 10° NNW 23:42:06 76° ENE 23:47:46 10° SSE
Meteor 1-24 Rocket 4.4 23:39:53 21° SW 23:42:53 39° WNW 23:47:56 10° N
ATLAS 2AS CENTAUR R/B 3.7 23:35:53 11° WSW 23:43:28 51° NW 23:51:08 10° NE
STARLINK-1205 3.7 23:39:27 10° WNW 23:43:37 79° NNE 23:47:46 10° ESE
Cosmos 2369 Rocket 4.5 23:41:40 10° WNW 23:45:15 17° NW 23:48:51 10° N
CZ-2D R/B 2.1 23:40:09 10° NNE 23:45:27 82° WNW 23:48:56 22° SSW
RESURS DK-1 2.7 23:43:24 25° SW 23:45:36 56° WNW 23:49:42 10° NNE
Cosmos 1697 Rocket 4.1 23:41:27 11° SSE 23:46:08 30° ESE 23:51:02 10° NE
Cosmos 1763 Rocket 4.4 23:43:43 15° S 23:47:37 41° ESE 23:52:23 10° NE
Cosmos 1356 Rocket 3.9 23:43:51 10° NNW 23:47:46 42° W 23:49:41 25° SSW
ADEOS II 2.9 23:43:26 10° NNE 23:48:29 45° E 23:53:11 12° S
STARLINK-1218 3.7 23:44:25 10° WNW 23:48:35 83° NNE 23:52:44 10° ESE
STARLINK-1254 3.6 23:49:25 10° WNW 23:53:35 87° NNE 23:57:44 10° ESE
Cosmos 1703 4.0 23:51:26 15° SSE 23:54:29 49° E 23:58:19 10° NNE
